Location: Sant’Antonio de Santadi
(39.7128°N, 8.4850°E)
Time: 03:12:30
(UTC+00:00)

Daily predictions for brighter satellites

Satellite Brightness Start Highest point End
(mag) Time Altitude Azimuth Time Altitude Azimuth Time Altitude Azimuth
Cosmos 1802 Rocket 4.1 00:10:04 60° W 00:10:05 60° W 00:16:15 10° N
COSMOS 2455 3.9 00:04:42 10° NW 00:08:44 34° WNW 00:08:44 34° WNW
Resurs 1-4 Rocket 4.2 00:09:41 10° NE 00:12:53 16° E 00:13:18 16° E
Meteor 1-20 Rocket 4.2 00:16:17 76° N 00:16:17 76° N 00:21:25 10° N
NOSS 3-4 (C) 4.2 00:21:50 34° E 00:21:50 34° E 00:26:12 10° NE
NOSS 3-4 (A) 4.2 00:22:21 34° E 00:22:21 34° E 00:26:39 10° NE
SJ 16-02 2.5 00:17:57 10° NNW 00:20:48 39° N 00:20:48 39° N
NOSS 3-2 (C) 4.4 00:22:09 10° NNW 00:29:46 66° NE 00:36:32 19° SE
USA 234 4.0 00:24:11 10° ENE 00:29:57 37° ESE 00:29:57 37° ESE
Cosmos 2061 Rocket 4.1 00:38:24 59° W 00:38:35 59° W 00:44:44 10° N
Tsikada Rocket 3.9 00:33:36 10° NNW 00:39:47 70° W 00:39:50 70° W
Nimbus 7 Rocket 4.5 00:35:29 10° N 00:41:21 63° WNW 00:41:39 62° W
Cosmos 2360 4.2 00:42:10 70° ESE 00:42:10 70° ESE 00:47:49 10° NNE
Cosmos 1151 Rocket 3.9 00:39:48 10° N 00:43:14 49° NNE 00:43:14 49° NNE
CZ-2C R/B 4.3 00:41:48 10° NE 00:45:53 28° E 00:46:01 28° E
DELTA 2 R/B (1) 3.7 00:48:59 64° E 00:48:59 64° E 00:53:40 10° E
CENTAUR R/B 3.7 00:42:47 10° NW 00:50:47 41° WSW 00:51:08 41° WSW
ATLAS 5 CENTAUR R/B 4.0 00:50:50 10° N 00:55:07 28° NE 01:00:10 10° ESE
Helios 1A Rocket 4.0 01:01:52 38° NNW 01:01:52 38° NNW 01:04:20 10° NNW
Cosmos 1697 Rocket 2.6 01:03:00 69° SE 01:03:20 71° ESE 01:08:56 10° NNE
Cosmos 2227 Rocket 3.1 01:02:50 10° NNW 01:08:17 46° ENE 01:11:58 20° SE
USA 281 4.4 01:09:24 24° W 01:09:24 24° W 01:13:39 10° NW
Cosmos 1867 3.4 01:14:31 10° NNW 01:20:02 86° WSW 01:20:54 65° SSE
Cosmos 2297 Rocket 2.1 01:17:35 10° NNW 01:23:13 68° WSW 01:23:36 66° SW
Meteor 1-5 Rocket 4.4 01:23:32 50° W 01:23:48 50° WNW 01:28:59 10° N
Cosmos 1992 Rocket 4.5 01:25:18 44° WNW 01:25:39 45° WNW 01:30:38 10° N
Cosmos 1066 Rocket 4.3 01:20:28 10° N 01:25:53 71° E 01:27:33 45° SSE
MSX 3.7 01:20:56 10° NNE 01:26:44 88° WNW 01:27:56 59° SSW
ATLAS CENTAUR R/B 4.2 01:26:18 23° W 01:29:32 40° NNW 01:38:03 10° NE
Lacrosse 5 3.8 01:27:19 10° WNW 01:28:36 17° WNW 01:28:36 17° WNW
CZ-2C R/B 2.6 01:30:35 53° S 01:32:00 86° WSW 01:37:39 10° NNW
Atlas Centaur 2 3.6 01:32:25 35° S 01:33:03 36° SSE 01:40:23 10° ESE
Cosmos 1486 Rocket 4.2 01:28:22 10° NNW 01:33:42 71° ENE 01:36:00 34° SE
Nadezhda 4 Rocket 4.0 01:28:11 10° N 01:34:19 77° E 01:36:56 37° SSE
Cosmos 304 Rocket 4.0 01:30:11 10° NNW 01:34:58 67° ENE 01:36:35 40° SE
CZ-2D R/B 2.0 01:30:13 10° NNE 01:35:28 87° ESE 01:36:29 59° S
USA 238 DEB 3.9 01:29:07 10° NNW 01:36:39 87° NE 01:44:40 10° SSE
USA 238 3.9 01:29:14 10° NNW 01:36:46 86° ENE 01:44:46 10° SSE
IDEFIX/ARIANE 42P 2.7 01:33:20 10° N 01:38:23 58° WNW 01:39:06 53° WSW
Cosmos 1980 Rocket 2.4 01:37:23 46° SSE 01:38:54 64° ESE 01:44:32 10° NNE
ADEOS II 2.3 01:35:14 10° NNE 01:40:27 64° ESE 01:42:00 44° SSE
Cosmos 2034 Rocket 4.0 01:40:38 42° S 01:43:00 85° E 01:49:25 10° N
H-2A R/B 3.5 01:39:46 10° N 01:43:40 64° WNW 01:43:40 64° WNW
Meteor 2-4 Rocket 4.1 01:39:11 10° NNW 01:44:17 42° W 01:44:34 42° W
Meteor 2-17 Rocket 4.4 01:40:57 10° NNW 01:47:00 65° W 01:48:46 45° SSW
SL-16 R/B 4.4 01:47:32 10° SE 01:51:02 17° E 01:54:33 10° ENE
KORONAS-FOTON 3.8 01:48:15 10° N 01:51:51 65° E 01:52:02 64° ESE
Cosmos 1674 2.9 01:48:42 10° N 01:51:24 54° NNW 01:51:24 54° NNW
Resurs 1-4 Rocket 2.2 01:47:48 10° N 01:53:03 61° WNW 01:54:21 47° SW
Cosmos 2026 Rocket 4.4 01:50:34 10° N 01:56:50 61° E 02:02:32 13° SSE
Cosmos 1743 4.4 01:57:50 21° NW 01:57:50 21° NW 01:59:59 10° NNW
Cosmos 1464 Rocket 4.3 01:57:05 38° WSW 01:58:46 48° WNW 02:04:40 10° N
Cosmos 1400 Rocket 3.2 01:55:54 10° N 01:59:47 60° E 02:01:12 36° SE
Okean 3 Rocket 3.5 01:59:24 59° SW 02:00:06 73° W 02:04:34 10° N
Cosmos 1726 3.7 02:01:56 19° NW 02:01:56 19° NW 02:03:17 10° NNW
Cosmos 1777 Rocket 4.3 01:56:21 10° NNW 02:01:32 66° ENE 02:06:35 10° SSE
Cosmos 1428 Rocket 4.4 01:57:12 10° N 02:03:32 89° W 02:07:31 24° S
SL-16 R/B 2.7 01:58:50 10° SSE 02:04:58 72° ENE 02:11:07 10° N
ALOS 2.4 02:00:31 10° NNE 02:05:08 67° ESE 02:06:55 36° S
FENGYUN 3A 3.7 02:02:21 10° N 02:07:45 69° WNW 02:09:47 39° SW
Cosmos 1340 3.1 02:08:40 39° NW 02:08:40 39° NW 02:11:24 10° N
Tiangong -0.8 02:12:08 31° SE 02:12:08 31° SE 02:14:00 10° ESE
Cosmos 1515 Rocket 3.4 02:07:18 10° N 02:11:45 83° W 02:13:22 38° S
NOSS 3-4 (C) 4.3 02:09:14 24° W 02:11:46 35° NW 02:17:12 10° NNE
NOSS 3-4 (A) 4.3 02:09:46 23° W 02:12:17 34° NW 02:17:37 10° NNE
USA 234 3.5 02:06:54 10° NE 02:13:21 61° NW 02:17:17 25° WSW
Meteor 1-11 Rocket 3.8 02:12:23 28° S 02:15:43 84° E 02:21:43 10° N
Cosmos 1634 Rocket 4.0 02:12:54 24° S 02:16:48 81° E 02:22:59 10° N
Meteor 1-4 Rocket 4.1 02:16:33 10° NNE 02:18:59 25° ENE 02:21:10 11° SE
CZ-2C R/B 4.2 02:14:53 10° NE 02:19:11 28° E 02:23:31 10° SSE
Cosmos 1354 Rocket 4.0 02:15:38 10° NNW 02:20:53 86° ENE 02:26:06 10° SSE
Cosmos 1763 Rocket 3.7 02:18:09 26° S 02:21:01 66° ESE 02:26:11 10° NNE
Cosmos 1536 3.0 02:20:44 45° WSW 02:21:23 51° W 02:25:16 10° N
Cosmos 1743 Rocket 4.0 02:20:32 23° SSE 02:23:08 61° E 02:27:31 10° NNE
Cosmos 1627 Rocket 4.5 02:17:03 10° N 02:23:24 85° W 02:29:01 14° S
SL-8 R/B 3.7 02:18:37 10° WNW 02:23:27 83° NNE 02:28:14 10° ESE
Cosmos 2219 3.1 02:19:50 10° NNW 02:25:32 79° WSW 02:31:15 10° SSE
CZ-2C R/B 4.0 02:21:36 10° N 02:25:39 29° WNW 02:27:01 25° W
Cosmos 1092 Rocket 3.9 02:20:24 10° N 02:26:32 80° W 02:31:46 15° S
Cosmos 1707 2.7 02:23:08 10° NNW 02:26:41 51° W 02:27:10 47° SW
Cosmos 371 Rocket 4.1 02:22:58 10° NW 02:27:10 30° W 02:27:30 29° WSW
Cosmos 2279 Rocket 4.3 02:23:38 14° S 02:29:00 67° E 02:35:12 10° NNE
Cosmos 1842 3.8 02:27:45 10° NNW 02:31:07 34° W 02:31:14 34° W
BREEZE-M DEB (TANK) 4.0 02:11:43 10° WNW 02:31:39 86° NNE 02:35:49 10° ESE
Cosmos 2369 3.8 02:30:07 29° SW 02:33:02 63° WNW 02:38:44 10° NNE
DELTA 2 R/B (1) 3.7 02:29:47 14° W 02:34:21 52° SSW 02:39:43 10° SE
METEOR-M 4.5 02:29:06 10° NNE 02:34:23 62° ESE 02:38:53 14° S
UNK 3.8 02:30:24 10° SSE 02:34:55 80° ENE 02:39:28 10° N
AQUA 4.2 02:30:42 10° N 02:35:13 46° WNW 02:37:14 28° SW
Cosmos 2263 Rocket 2.1 02:30:29 10° NNW 02:36:08 87° WSW 02:41:47 10° SSE
ATLAS 5 CENTAUR R/B 2.4 02:33:56 10° NW 02:39:04 51° WSW 02:45:18 10° SSE
Cosmos 1500 Rocket 3.6 02:38:37 29° SSW 02:40:42 61° W 02:45:04 10° N
Cosmos 1733 3.7 02:42:22 32° WSW 02:43:08 37° WNW 02:46:26 10° N
BREEZE-M DEB (TANK) 3.4 02:42:30 26° S 02:43:29 33° SE 02:46:16 10° ENE
Meteor 2-12 Rocket 4.4 02:39:21 10° N 02:45:26 85° W 02:51:29 10° S
Meteor 1-28 Rocket 3.8 02:44:50 31° WSW 02:45:27 33° W 02:48:45 10° NNW
Meteor 2-9 Rocket 4.3 02:43:42 21° SSW 02:47:34 63° WNW 02:53:09 10° N
Cosmos 2227 Rocket 3.3 02:47:35 10° NW 02:51:58 24° WSW 02:53:40 20° SW
YAOGAN 6 3.4 02:50:28 10° NNE 02:53:31 41° E 02:56:33 10° S
Cosmos 540 Rocket 3.4 02:54:34 18° SSW 02:58:25 77° WNW 03:03:35 10° NNE
Meteor 1-23 Rocket 4.2 02:53:50 10° N 02:59:32 84° W 03:05:08 10° S
RESURS DK-1 3.1 03:00:42 20° WSW 03:02:55 37° WNW 03:06:44 10° N
SAR-Lupe-1 4.3 02:59:41 10° N 03:03:10 50° WNW 03:05:24 20° SW
Lacrosse 5 rocket 4.5 03:02:48 10° N 03:04:43 13° NNE 03:06:39 10° NE
ATLAS 2AS CENTAUR R/B 4.0 02:59:33 10° S 03:06:17 39° ESE 03:12:50 10° NE
Cosmos 2278 3.7 03:01:28 15° SSW 03:06:19 83° WNW 03:12:04 10° NNE
Cosmos 1805 Rocket 4.3 03:04:47 19° SW 03:07:29 37° WNW 03:11:37 10° N
Cosmos 1862 Rocket 4.4 03:06:32 10° N 03:10:47 51° E 03:14:58 10° SSE
SL-14 R/B 3.2 03:06:52 10° N 03:10:50 77° W 03:14:43 10° S
Cosmos 292 Rocket 3.8 03:08:32 10° NNW 03:13:20 84° ENE 03:18:05 10° SSE
H-2A R/B 3.2 03:09:00 10° NNE 03:13:34 39° E 03:18:09 10° SSE
CZ-2D R/B 4.1 03:12:45 10° NW 03:14:43 12° WNW 03:16:39 10° W
SL-4 R/B 1.7 03:13:22 17° SW 03:16:11 86° SE 03:19:46 10° NE
Cosmos 2082 4.0 03:11:09 10° NW 03:16:30 44° WSW 03:21:51 10° S
Sich 1 4.1 03:14:04 16° SW 03:16:39 27° WNW 03:20:18 10° NNW
DMSP B5D2-2 4.1 03:11:29 10° SSE 03:16:43 90° W 03:21:58 10° NNW
Envisat 3.4 03:12:05 10° N 03:16:57 48° WNW 03:21:30 11° SW
Cosmos 2333 Rocket 3.4 03:13:00 10° S 03:18:18 41° ESE 03:23:39 10° NE
Cosmos 1766 3.5 03:15:43 10° S 03:19:23 66° E 03:23:04 10° NNE
ADEOS II 3.9 03:16:20 10° NNW 03:19:29 16° WNW 03:22:39 10° W
CZ-4 R/B 4.0 03:15:12 10° N 03:20:03 62° WNW 03:24:47 10° SSW
PAYLOAD A 4.1 03:15:31 10° NNE 03:20:50 87° WNW 03:25:57 10° SSW
Atlas Centaur 2 3.5 03:14:36 12° WSW 03:21:48 43° S 03:29:09 10° ESE
Cosmos 990 Rocket 4.0 03:16:41 10° NNW 03:21:49 59° WSW 03:26:57 10° S
ASTRO E2 4.0 03:21:02 14° SW 03:22:24 17° S 03:24:44 10° SE
Cosmos 1666 Rocket 3.5 03:18:36 10° S 03:22:57 79° W 03:27:23 10° N
Cosmos 2219 Rocket 4.3 03:18:52 10° SSE 03:23:20 25° ESE 03:27:51 10° NE
Cosmos 1980 Rocket 3.9 03:19:18 10° W 03:23:22 20° NW 03:27:27 10° N
Cosmos 1707 Rocket 3.5 03:20:13 10° N 03:24:34 89° ENE 03:28:55 10° S
NOSS 2-2 (C) 4.5 03:19:49 10° NW 03:24:36 47° WSW 03:31:16 10° SSE
Cosmos 2266 Rocket 4.0 03:19:57 10° N 03:26:02 84° E 03:32:04 10° S
Cosmos 1242 Rocket 2.1 03:29:32 10° NNW 03:31:54 37° W 03:34:14 10° SSW
NOSS 2-2 (E) 4.3 03:27:57 10° NW 03:32:42 57° WSW 03:39:24 10° SSE
SL-16 R/B 2.3 03:28:55 10° SW 03:34:31 63° WNW 03:40:09 10° NNE
Cosmos 1315 Rocket 2.9 03:31:17 10° NNW 03:35:01 52° W 03:38:44 10° S
Cosmos 2084 4.3 03:32:18 10° WNW 03:35:14 21° WSW 03:38:11 10° SSW
Cosmos 1937 Rocket 4.2 03:31:38 10° NNW 03:36:44 59° ENE 03:41:48 10° SSE
ALOS 4.3 03:39:45 10° NW 03:41:43 13° WNW 03:43:40 10° W
BREEZE-M DEB (TANK) 3.9 03:44:18 10° S 03:46:02 23° SE 03:48:41 10° ENE
IRS-1D 3.6 03:42:00 10° N 03:46:50 57° WNW 03:51:41 10° SSW
Okean 2 3.7 03:42:53 10° N 03:46:53 68° E 03:50:49 10° SSE
Tiangong -0.2 03:45:44 10° WSW 03:47:34 14° SW 03:49:24 10° S
SL-16 R/B 4.0 03:45:17 10° SW 03:49:04 17° W 03:52:51 10° NW
Cosmos 2322 Rocket 2.3 03:43:47 10° SSW 03:49:25 76° WNW 03:55:07 10° NNE
Cosmos 1975 4.2 03:47:14 10° SW 03:50:11 21° WNW 03:53:09 10° NNW
